owner,sensor,date,latitude,longitude,vertical_datum,mass_concentration_of_oxygen_in_sea_water,qcFlag 
DISL,ioos:station:DISL:KATA:1,2016-05-01T00:00:00Z,30.2583,-88.2131,4.416,4.25,1111122 
DISL,ioos:station:DISL:KATA:1,2016-05-01T00:30:00Z,30.2583,-88.2131,4.386,4.25,1111122 
DISL,ioos:station:DISL:KATA:1,2016-05-01T01:00:00Z,30.2583,-88.2131,4.52,4.25,1111122 
DISL,ioos:station:DISL:KATA:1,2016-05-01T01:30:00Z,30.2583,-88.2131,4.438,4.25,1111122 
DISL,ioos:station:DISL:KATA:1,2016-05-01T02:00:00Z,30.2583,-88.2131,4.304,4.25,1111122 
DISL,ioos:station:DISL:KATA:1,2016-05-01T02:30:00Z,30.2583,-88.2131,4.181,4.25,1111122 
DISL,ioos:station:DISL:KATA:1,2016-05-01T03:00:00Z,30.2583,-88.2131,4.056,4.25,1111122 
DISL,ioos:station:DISL:KATA:1,2016-05-01T03:30:00Z,30.2583,-88.2131,4.154,4.25,1111122 
DISL,ioos:station:DISL:KATA:1,2016-05-01T04:00:00Z,30.2583,-88.2131,4.146,4.25,1111122 
DISL,ioos:station:DISL:KATA:1,2016-05-01T04:30:00Z,30.2583,-88.2131,4.18,4.25,1111122 
DISL,ioos:station:DISL:KATA:1,2016-05-01T05:00:00Z,30.2583,-88.2131,4.235,4.25,1111122 
DISL,ioos:station:DISL:KATA:1,2016-05-01T05:30:00Z,30.2583,-88.2131,4.217,4.25,1111122 
DISL,ioos:station:DISL:KATA:1,2016-05-01T06:00:00Z,30.2583,-88.2131,4.235,4.25,1111122 
DISL,ioos:station:DISL:KATA:1,2016-05-01T06:30:00Z,30.2583,-88.2131,4.273,4.25,1111122 
DISL,ioos:station:DISL:KATA:1,2016-05-01T07:00:00Z,30.2583,-88.2131,4.275,4.25,1111122 
DISL,ioos:station:DISL:KATA:1,2016-05-01T07:30:00Z,30.2583,-88.2131,4.227,4.25,1111122 
DISL,ioos:station:DISL:KATA:1,2016-05-01T08:00:00Z,30.2583,-88.2131,4.199,4.25,1111122 
DISL,ioos:station:DISL:KATA:1,2016-05-01T08:30:00Z,30.2583,-88.2131,4.166,4.25,1111122 
DISL,ioos:station:DISL:KATA:1,2016-05-01T09:00:00Z,30.2583,-88.2131,4.134,4.25,1111122 
DISL,ioos:station:DISL:KATA:1,2016-05-01T09:30:00Z,30.2583,-88.2131,4.137,4.25,1111122 
DISL,ioos:station:DISL:KATA:1,2016-05-01T10:00:00Z,30.2583,-88.2131,4.153,4.25,1111122 
DISL,ioos:station:DISL:KATA:1,2016-05-01T10:30:00Z,30.2583,-88.2131,4.177,4.25,1111122 
DISL,ioos:station:DISL:KATA:1,2016-05-01T11:00:00Z,30.2583,-88.2131,4.243,4.25,1111122 
DISL,ioos:station:DISL:KATA:1,2016-05-01T11:30:00Z,30.2583,-88.2131,4.257,4.25,1111122 
DISL,ioos:station:DISL:KATA:1,2016-05-01T12:00:00Z,30.2583,-88.2131,4.277,4.25,1111122 
DISL,ioos:station:DISL:KATA:1,2016-05-01T12:30:00Z,30.2583,-88.2131,4.28,4.25,1111122 
DISL,ioos:station:DISL:KATA:1,2016-05-01T13:00:00Z,30.2583,-88.2131,4.271,4.25,1111122 
DISL,ioos:station:DISL:KATA:1,2016-05-01T13:30:00Z,30.2583,-88.2131,4.289,4.25,1111122 
DISL,ioos:station:DISL:KATA:1,2016-05-01T14:00:00Z,30.2583,-88.2131,4.318,4.25,1111122 
DISL,ioos:station:DISL:KATA:1,2016-05-01T14:30:00Z,30.2583,-88.2131,4.362,4.25,1111122 
DISL,ioos:station:DISL:KATA:1,2016-05-01T15:00:00Z,30.2583,-88.2131,4.387,4.25,1111122 
DISL,ioos:station:DISL:KATA:1,2016-05-01T15:30:00Z,30.2583,-88.2131,4.386,4.25,1111122 
DISL,ioos:station:DISL:KATA:1,2016-05-01T16:00:00Z,30.2583,-88.2131,4.375,4.25,1111122 
DISL,ioos:station:DISL:KATA:1,2016-05-01T16:30:00Z,30.2583,-88.2131,4.367,4.25,1111122 
DISL,ioos:station:DISL:KATA:1,2016-05-01T17:00:00Z,30.2583,-88.2131,4.358,4.25,1111122 
DISL,ioos:station:DISL:KATA:1,2016-05-01T17:30:00Z,30.2583,-88.2131,4.36,4.25,1111122 
DISL,ioos:station:DISL:KATA:1,2016-05-01T18:00:00Z,30.2583,-88.2131,4.395,4.25,1111122 
DISL,ioos:station:DISL:KATA:1,2016-05-01T18:30:00Z,30.2583,-88.2131,4.436,4.25,1111122 
DISL,ioos:station:DISL:KATA:1,2016-05-01T19:00:00Z,30.2583,-88.2131,4.454,4.25,1111122 
DISL,ioos:station:DISL:KATA:1,2016-05-01T19:30:00Z,30.2583,-88.2131,4.465,4.25,1111122 
DISL,ioos:station:DISL:KATA:1,2016-05-01T20:00:00Z,30.2583,-88.2131,4.465,4.25,1111122 
DISL,ioos:station:DISL:KATA:1,2016-05-01T20:30:00Z,30.2583,-88.2131,4.449,4.25,1111122 
DISL,ioos:station:DISL:KATA:1,2016-05-01T21:00:00Z,30.2583,-88.2131,4.445,4.25,1111122 
DISL,ioos:station:DISL:KATA:1,2016-05-01T21:30:00Z,30.2583,-88.2131,4.447,4.25,1111122 
DISL,ioos:station:DISL:KATA:1,2016-05-01T22:00:00Z,30.2583,-88.2131,4.461,4.25,1111122 
DISL,ioos:station:DISL:KATA:1,2016-05-01T22:30:00Z,30.2583,-88.2131,4.465,4.25,1111122 
DISL,ioos:station:DISL:KATA:1,2016-05-01T23:00:00Z,30.2583,-88.2131,4.434,4.25,1111122 
DISL,ioos:station:DISL:KATA:1,2016-05-01T23:30:00Z,30.2583,-88.2131,4.375,4.25,1111122 
DISL,ioos:station:DISL:KATA:1,2016-05-02T00:00:00Z,30.2583,-88.2131,4.354,4.25,1111122 
DISL,ioos:station:DISL:KATA:1,2016-05-02T00:30:00Z,30.2583,-88.2131,4.346,4.25,1111122 
DISL,ioos:station:DISL:KATA:1,2016-05-02T01:00:00Z,30.2583,-88.2131,4.352,4.25,1111122 
DISL,ioos:station:DISL:KATA:1,2016-05-02T01:30:00Z,30.2583,-88.2131,4.433,4.25,1111122 
DISL,ioos:station:DISL:KATA:1,2016-05-02T02:00:00Z,30.2583,-88.2131,4.406,4.25,1111122 
DISL,ioos:station:DISL:KATA:1,2016-05-02T02:30:00Z,30.2583,-88.2131,4.503,4.25,1111122 
DISL,ioos:station:DISL:KATA:1,2016-05-02T03:00:00Z,30.2583,-88.2131,4.489,4.25,1111122 
DISL,ioos:station:DISL:KATA:1,2016-05-02T03:30:00Z,30.2583,-88.2131,4.398,4.25,1111122 
DISL,ioos:station:DISL:KATA:1,2016-05-02T04:00:00Z,30.2583,-88.2131,4.57,4.25,1111122 
DISL,ioos:station:DISL:KATA:1,2016-05-02T04:30:00Z,30.2583,-88.2131,4.532,4.25,1111122 
DISL,ioos:station:DISL:KATA:1,2016-05-02T05:00:00Z,30.2583,-88.2131,4.483,4.25,1111122 
DISL,ioos:station:DISL:KATA:1,2016-05-02T05:30:00Z,30.2583,-88.2131,4.419,4.25,1111122 
DISL,ioos:station:DISL:KATA:1,2016-05-02T06:00:00Z,30.2583,-88.2131,4.366,4.25,1111122 
DISL,ioos:station:DISL:KATA:1,2016-05-02T06:30:00Z,30.2583,-88.2131,4.364,4.25,1111122 
DISL,ioos:station:DISL:KATA:1,2016-05-02T07:00:00Z,30.2583,-88.2131,4.364,4.25,1111122 
DISL,ioos:station:DISL:KATA:1,2016-05-02T07:30:00Z,30.2583,-88.2131,4.381,4.25,1111122 
DISL,ioos:station:DISL:KATA:1,2016-05-02T08:00:00Z,30.2583,-88.2131,4.345,4.25,1111122 
DISL,ioos:station:DISL:KATA:1,2016-05-02T08:30:00Z,30.2583,-88.2131,4.293,4.25,1111122 
DISL,ioos:station:DISL:KATA:1,2016-05-02T09:00:00Z,30.2583,-88.2131,4.298,4.25,1111122 
DISL,ioos:station:DISL:KATA:1,2016-05-02T09:30:00Z,30.2583,-88.2131,4.283,4.25,1111122 
DISL,ioos:station:DISL:KATA:1,2016-05-02T10:00:00Z,30.2583,-88.2131,4.251,4.25,1111122 
DISL,ioos:station:DISL:KATA:1,2016-05-02T10:30:00Z,30.2583,-88.2131,4.239,4.25,1111122 
DISL,ioos:station:DISL:KATA:1,2016-05-02T11:00:00Z,30.2583,-88.2131,4.233,4.25,1111122 
DISL,ioos:station:DISL:KATA:1,2016-05-02T11:30:00Z,30.2583,-88.2131,4.253,4.25,1111122 
DISL,ioos:station:DISL:KATA:1,2016-05-02T12:00:00Z,30.2583,-88.2131,4.28,4.25,1111122 
DISL,ioos:station:DISL:KATA:1,2016-05-02T12:30:00Z,30.2583,-88.2131,4.306,4.25,1111122 
DISL,ioos:station:DISL:KATA:1,2016-05-02T13:00:00Z,30.2583,-88.2131,4.325,4.25,1111122 
DISL,ioos:station:DISL:KATA:1,2016-05-02T13:30:00Z,30.2583,-88.2131,4.326,4.25,1111122 
DISL,ioos:station:DISL:KATA:1,2016-05-02T14:00:00Z,30.2583,-88.2131,4.343,4.25,1111122 
DISL,ioos:station:DISL:KATA:1,2016-05-02T14:30:00Z,30.2583,-88.2131,4.357,4.25,1111122 
DISL,ioos:station:DISL:KATA:1,2016-05-02T15:00:00Z,30.2583,-88.2131,4.389,4.25,1111122 
DISL,ioos:station:DISL:KATA:1,2016-05-02T15:30:00Z,30.2583,-88.2131,4.406,4.25,1111122 
DISL,ioos:station:DISL:KATA:1,2016-05-02T16:00:00Z,30.2583,-88.2131,4.395,4.25,1111122 
DISL,ioos:station:DISL:KATA:1,2016-05-02T16:30:00Z,30.2583,-88.2131,4.396,4.25,1111122 
DISL,ioos:station:DISL:KATA:1,2016-05-02T17:00:00Z,30.2583,-88.2131,4.378,4.25,1111122 
DISL,ioos:station:DISL:KATA:1,2016-05-02T17:30:00Z,30.2583,-88.2131,4.35,4.25,1111122 
DISL,ioos:station:DISL:KATA:1,2016-05-02T18:00:00Z,30.2583,-88.2131,4.341,4.25,1111122 
DISL,ioos:station:DISL:KATA:1,2016-05-02T18:30:00Z,30.2583,-88.2131,4.324,4.25,1111122 
DISL,ioos:station:DISL:KATA:1,2016-05-02T19:00:00Z,30.2583,-88.2131,4.333,4.25,1111122 
DISL,ioos:station:DISL:KATA:1,2016-05-02T19:30:00Z,30.2583,-88.2131,4.341,4.25,1111122 
DISL,ioos:station:DISL:KATA:1,2016-05-02T20:00:00Z,30.2583,-88.2131,4.337,4.25,1111122 
DISL,ioos:station:DISL:KATA:1,2016-05-02T20:30:00Z,30.2583,-88.2131,4.357,4.25,1111122 
DISL,ioos:station:DISL:KATA:1,2016-05-02T21:00:00Z,30.2583,-88.2131,4.357,4.25,1111122 
DISL,ioos:station:DISL:KATA:1,2016-05-02T21:30:00Z,30.2583,-88.2131,4.356,4.25,1111122 
DISL,ioos:station:DISL:KATA:1,2016-05-02T22:00:00Z,30.2583,-88.2131,4.363,4.25,1111122 
DISL,ioos:station:DISL:KATA:1,2016-05-02T22:30:00Z,30.2583,-88.2131,4.367,4.25,1111122 
DISL,ioos:station:DISL:KATA:1,2016-05-02T23:00:00Z,30.2583,-88.2131,4.385,4.25,1111122 
DISL,ioos:station:DISL:KATA:1,2016-05-02T23:30:00Z,30.2583,-88.2131,4.383,4.25,1111122 
DISL,ioos:station:DISL:KATA:1,2016-05-03T00:00:00Z,30.2583,-88.2131,4.395,4.25,1111122 
DISL,ioos:station:DISL:KATA:1,2016-05-03T00:30:00Z,30.2583,-88.2131,4.381,4.25,1111122 
DISL,ioos:station:DISL:KATA:1,2016-05-03T01:00:00Z,30.2583,-88.2131,4.358,4.25,1111122 
DISL,ioos:station:DISL:KATA:1,2016-05-03T01:30:00Z,30.2583,-88.2131,4.363,4.25,1111122 
DISL,ioos:station:DISL:KATA:1,2016-05-03T02:00:00Z,30.2583,-88.2131,4.421,4.25,1111122 
DISL,ioos:station:DISL:KATA:1,2016-05-03T02:30:00Z,30.2583,-88.2131,4.381,4.25,1111122 
DISL,ioos:station:DISL:KATA:1,2016-05-03T03:00:00Z,30.2583,-88.2131,4.356,4.25,1111122 
DISL,ioos:station:DISL:KATA:1,2016-05-03T03:30:00Z,30.2583,-88.2131,4.349,4.25,1111122 
DISL,ioos:station:DISL:KATA:1,2016-05-03T04:00:00Z,30.2583,-88.2131,4.36,4.25,1111122 
DISL,ioos:station:DISL:KATA:1,2016-05-03T04:30:00Z,30.2583,-88.2131,4.322,4.25,1111122 
DISL,ioos:station:DISL:KATA:1,2016-05-03T05:00:00Z,30.2583,-88.2131,4.272,4.25,1111122 
DISL,ioos:station:DISL:KATA:1,2016-05-03T05:30:00Z,30.2583,-88.2131,4.245,4.25,1111122 
DISL,ioos:station:DISL:KATA:1,2016-05-03T06:00:00Z,30.2583,-88.2131,4.248,4.25,1111122 
DISL,ioos:station:DISL:KATA:1,2016-05-03T06:30:00Z,30.2583,-88.2131,4.241,4.25,1111122 
DISL,ioos:station:DISL:KATA:1,2016-05-03T07:00:00Z,30.2583,-88.2131,4.247,4.25,1111122 
DISL,ioos:station:DISL:KATA:1,2016-05-03T07:30:00Z,30.2583,-88.2131,4.255,4.25,1111122 
DISL,ioos:station:DISL:KATA:1,2016-05-03T08:00:00Z,30.2583,-88.2131,4.268,4.25,1111122 
DISL,ioos:station:DISL:KATA:1,2016-05-03T08:30:00Z,30.2583,-88.2131,4.281,4.25,1111122 
DISL,ioos:station:DISL:KATA:1,2016-05-03T09:00:00Z,30.2583,-88.2131,4.275,4.25,1111122 
DISL,ioos:station:DISL:KATA:1,2016-05-03T09:30:00Z,30.2583,-88.2131,4.286,4.25,1111122 
DISL,ioos:station:DISL:KATA:1,2016-05-03T10:00:00Z,30.2583,-88.2131,4.288,4.25,1111122 
DISL,ioos:station:DISL:KATA:1,2016-05-03T10:30:00Z,30.2583,-88.2131,4.298,4.25,1111122 
DISL,ioos:station:DISL:KATA:1,2016-05-03T11:00:00Z,30.2583,-88.2131,4.314,4.25,1111122 
DISL,ioos:station:DISL:KATA:1,2016-05-03T11:30:00Z,30.2583,-88.2131,4.308,4.25,1111122 
DISL,ioos:station:DISL:KATA:1,2016-05-03T12:00:00Z,30.2583,-88.2131,4.312,4.25,1111122 
DISL,ioos:station:DISL:KATA:1,2016-05-03T12:30:00Z,30.2583,-88.2131,4.32,4.25,1111122 
DISL,ioos:station:DISL:KATA:1,2016-05-03T13:00:00Z,30.2583,-88.2131,4.33,4.25,1111122 
DISL,ioos:station:DISL:KATA:1,2016-05-03T13:30:00Z,30.2583,-88.2131,4.341,4.25,1111122 
DISL,ioos:station:DISL:KATA:1,2016-05-03T14:00:00Z,30.2583,-88.2131,4.371,4.25,1111122 
DISL,ioos:station:DISL:KATA:1,2016-05-03T14:30:00Z,30.2583,-88.2131,4.365,4.25,1111122 
DISL,ioos:station:DISL:KATA:1,2016-05-03T15:00:00Z,30.2583,-88.2131,4.381,4.25,1111122 
DISL,ioos:station:DISL:KATA:1,2016-05-03T15:30:00Z,30.2583,-88.2131,4.376,4.25,1111122 
DISL,ioos:station:DISL:KATA:1,2016-05-03T16:00:00Z,30.2583,-88.2131,4.344,4.25,1111122 
DISL,ioos:station:DISL:KATA:1,2016-05-03T16:30:00Z,30.2583,-88.2131,4.323,4.25,1111122 
DISL,ioos:station:DISL:KATA:1,2016-05-03T17:00:00Z,30.2583,-88.2131,4.301,4.25,1111122 
DISL,ioos:station:DISL:KATA:1,2016-05-03T17:30:00Z,30.2583,-88.2131,4.274,4.25,1111122 
DISL,ioos:station:DISL:KATA:1,2016-05-03T18:00:00Z,30.2583,-88.2131,4.257,4.25,1111122 
DISL,ioos:station:DISL:KATA:1,2016-05-03T18:30:00Z,30.2583,-88.2131,4.236,4.25,1111122 
DISL,ioos:station:DISL:KATA:1,2016-05-03T19:00:00Z,30.2583,-88.2131,4.227,4.25,1111122 
DISL,ioos:station:DISL:KATA:1,2016-05-03T19:30:00Z,30.2583,-88.2131,4.225,4.25,1111122 
DISL,ioos:station:DISL:KATA:1,2016-05-03T20:00:00Z,30.2583,-88.2131,4.23,4.25,1111122 
DISL,ioos:station:DISL:KATA:1,2016-05-03T20:30:00Z,30.2583,-88.2131,4.229,4.25,1111122 
DISL,ioos:station:DISL:KATA:1,2016-05-03T21:00:00Z,30.2583,-88.2131,4.248,4.25,1111122 
DISL,ioos:station:DISL:KATA:1,2016-05-03T21:30:00Z,30.2583,-88.2131,4.253,4.25,1111122 
DISL,ioos:station:DISL:KATA:1,2016-05-03T22:00:00Z,30.2583,-88.2131,4.27,4.25,1111122 
DISL,ioos:station:DISL:KATA:1,2016-05-03T22:30:00Z,30.2583,-88.2131,4.292,4.25,1111122 
DISL,ioos:station:DISL:KATA:1,2016-05-03T23:00:00Z,30.2583,-88.2131,4.29,4.25,1111122 
DISL,ioos:station:DISL:KATA:1,2016-05-03T23:30:00Z,30.2583,-88.2131,4.255,4.25,1111122 
DISL,ioos:station:DISL:KATA:1,2016-05-04T00:00:00Z,30.2583,-88.2131,4.26,4.25,1111122 
DISL,ioos:station:DISL:KATA:1,2016-05-04T00:30:00Z,30.2583,-88.2131,4.261,4.25,1111122 
DISL,ioos:station:DISL:KATA:1,2016-05-04T01:00:00Z,30.2583,-88.2131,4.286,4.25,1111122 
DISL,ioos:station:DISL:KATA:1,2016-05-04T01:30:00Z,30.2583,-88.2131,4.305,4.25,1111122 
DISL,ioos:station:DISL:KATA:1,2016-05-04T02:00:00Z,30.2583,-88.2131,4.291,4.25,1111122 
DISL,ioos:station:DISL:KATA:1,2016-05-04T02:30:00Z,30.2583,-88.2131,4.276,4.25,1111122 
DISL,ioos:station:DISL:KATA:1,2016-05-04T03:00:00Z,30.2583,-88.2131,4.291,4.25,1111122 
DISL,ioos:station:DISL:KATA:1,2016-05-04T03:30:00Z,30.2583,-88.2131,4.306,4.25,1111122 
DISL,ioos:station:DISL:KATA:1,2016-05-04T04:00:00Z,30.2583,-88.2131,4.309,4.25,1111122 
DISL,ioos:station:DISL:KATA:1,2016-05-04T04:30:00Z,30.2583,-88.2131,4.303,4.25,1111122 
DISL,ioos:station:DISL:KATA:1,2016-05-04T05:00:00Z,30.2583,-88.2131,4.296,4.25,1111122 
DISL,ioos:station:DISL:KATA:1,2016-05-04T05:30:00Z,30.2583,-88.2131,4.284,4.25,1111122 
DISL,ioos:station:DISL:KATA:1,2016-05-04T06:00:00Z,30.2583,-88.2131,4.309,4.25,1111122 
DISL,ioos:station:DISL:KATA:1,2016-05-04T06:30:00Z,30.2583,-88.2131,4.287,4.25,1111122 
DISL,ioos:station:DISL:KATA:1,2016-05-04T07:00:00Z,30.2583,-88.2131,4.244,4.25,1111122 
DISL,ioos:station:DISL:KATA:1,2016-05-04T07:30:00Z,30.2583,-88.2131,4.234,4.25,1111122 
DISL,ioos:station:DISL:KATA:1,2016-05-04T08:00:00Z,30.2583,-88.2131,4.192,4.25,1111122 
DISL,ioos:station:DISL:KATA:1,2016-05-04T08:30:00Z,30.2583,-88.2131,4.177,4.25,1111122 
DISL,ioos:station:DISL:KATA:1,2016-05-04T09:00:00Z,30.2583,-88.2131,4.181,4.25,1111122 
DISL,ioos:station:DISL:KATA:1,2016-05-04T09:30:00Z,30.2583,-88.2131,4.153,4.25,1111122 
DISL,ioos:station:DISL:KATA:1,2016-05-04T10:00:00Z,30.2583,-88.2131,4.145,4.25,1111122 
DISL,ioos:station:DISL:KATA:1,2016-05-04T10:30:00Z,30.2583,-88.2131,4.137,4.25,1111122 
DISL,ioos:station:DISL:KATA:1,2016-05-04T11:00:00Z,30.2583,-88.2131,4.161,4.25,1111122 
DISL,ioos:station:DISL:KATA:1,2016-05-04T11:30:00Z,30.2583,-88.2131,4.177,4.25,1111122 
DISL,ioos:station:DISL:KATA:1,2016-05-04T12:00:00Z,30.2583,-88.2131,4.203,4.25,1111122 
DISL,ioos:station:DISL:KATA:1,2016-05-04T12:30:00Z,30.2583,-88.2131,4.235,4.25,1111122 
DISL,ioos:station:DISL:KATA:1,2016-05-04T13:00:00Z,30.2583,-88.2131,4.258,4.25,1111122 
DISL,ioos:station:DISL:KATA:1,2016-05-04T13:30:00Z,30.2583,-88.2131,4.279,4.25,1111122 
DISL,ioos:station:DISL:KATA:1,2016-05-04T14:00:00Z,30.2583,-88.2131,4.291,4.25,1111122 
DISL,ioos:station:DISL:KATA:1,2016-05-04T14:30:00Z,30.2583,-88.2131,4.319,4.25,1111122 
DISL,ioos:station:DISL:KATA:1,2016-05-04T15:00:00Z,30.2583,-88.2131,4.344,4.25,1111122 
DISL,ioos:station:DISL:KATA:1,2016-05-04T15:30:00Z,30.2583,-88.2131,4.357,4.25,1111122 
DISL,ioos:station:DISL:KATA:1,2016-05-04T16:00:00Z,30.2583,-88.2131,4.356,4.25,1111122 
DISL,ioos:station:DISL:KATA:1,2016-05-04T16:30:00Z,30.2583,-88.2131,4.355,4.25,1111122 
DISL,ioos:station:DISL:KATA:1,2016-05-04T17:00:00Z,30.2583,-88.2131,4.36,4.25,1111122 
DISL,ioos:station:DISL:KATA:1,2016-05-04T17:30:00Z,30.2583,-88.2131,4.329,4.25,1111122 
DISL,ioos:station:DISL:KATA:1,2016-05-04T18:00:00Z,30.2583,-88.2131,4.298,4.25,1111122 
DISL,ioos:station:DISL:KATA:1,2016-05-04T18:30:00Z,30.2583,-88.2131,4.273,4.25,1111122 
DISL,ioos:station:DISL:KATA:1,2016-05-04T19:00:00Z,30.2583,-88.2131,4.242,4.25,1111122 
DISL,ioos:station:DISL:KATA:1,2016-05-04T19:30:00Z,30.2583,-88.2131,4.202,4.25,1111122 
DISL,ioos:station:DISL:KATA:1,2016-05-04T20:00:00Z,30.2583,-88.2131,4.183,4.25,1111122 
DISL,ioos:station:DISL:KATA:1,2016-05-04T20:30:00Z,30.2583,-88.2131,4.172,4.25,1111122 
DISL,ioos:station:DISL:KATA:1,2016-05-04T21:00:00Z,30.2583,-88.2131,4.169,4.25,1111122 
DISL,ioos:station:DISL:KATA:1,2016-05-04T21:30:00Z,30.2583,-88.2131,4.178,4.25,1111122 
DISL,ioos:station:DISL:KATA:1,2016-05-04T22:00:00Z,30.2583,-88.2131,4.175,4.25,1111122 
DISL,ioos:station:DISL:KATA:1,2016-05-04T22:30:00Z,30.2583,-88.2131,4.141,4.25,1111122 
DISL,ioos:station:DISL:KATA:1,2016-05-04T23:00:00Z,30.2583,-88.2131,4.134,4.25,1111122 
DISL,ioos:station:DISL:KATA:1,2016-05-04T23:30:00Z,30.2583,-88.2131,4.143,4.25,1111122 
DISL,ioos:station:DISL:KATA:1,2016-05-05T00:00:00Z,30.2583,-88.2131,4.157,4.25,1111122 
DISL,ioos:station:DISL:KATA:1,2016-05-05T00:30:00Z,30.2583,-88.2131,4.164,4.25,1111122 
DISL,ioos:station:DISL:KATA:1,2016-05-05T01:00:00Z,30.2583,-88.2131,4.163,4.25,1111122 
DISL,ioos:station:DISL:KATA:1,2016-05-05T01:30:00Z,30.2583,-88.2131,4.169,4.25,1111122 
DISL,ioos:station:DISL:KATA:1,2016-05-05T02:00:00Z,30.2583,-88.2131,4.17,4.25,1111122 
DISL,ioos:station:DISL:KATA:1,2016-05-05T02:30:00Z,30.2583,-88.2131,4.174,4.25,1111122 
DISL,ioos:station:DISL:KATA:1,2016-05-05T03:00:00Z,30.2583,-88.2131,4.183,4.25,1111122 
DISL,ioos:station:DISL:KATA:1,2016-05-05T03:30:00Z,30.2583,-88.2131,4.185,4.25,1111122 
DISL,ioos:station:DISL:KATA:1,2016-05-05T04:00:00Z,30.2583,-88.2131,4.206,4.25,1111122 
DISL,ioos:station:DISL:KATA:1,2016-05-05T04:30:00Z,30.2583,-88.2131,4.241,4.25,1111122 
DISL,ioos:station:DISL:KATA:1,2016-05-05T05:00:00Z,30.2583,-88.2131,4.267,4.25,1111122 
DISL,ioos:station:DISL:KATA:1,2016-05-05T05:30:00Z,30.2583,-88.2131,4.289,4.25,1111122 
DISL,ioos:station:DISL:KATA:1,2016-05-05T06:00:00Z,30.2583,-88.2131,4.304,4.25,1111122 
DISL,ioos:station:DISL:KATA:1,2016-05-05T06:30:00Z,30.2583,-88.2131,4.326,4.25,1111122 
DISL,ioos:station:DISL:KATA:1,2016-05-05T07:00:00Z,30.2583,-88.2131,4.379,4.25,1111122 
DISL,ioos:station:DISL:KATA:1,2016-05-05T07:30:00Z,30.2583,-88.2131,4.322,4.25,1111122 
DISL,ioos:station:DISL:KATA:1,2016-05-05T08:00:00Z,30.2583,-88.2131,4.308,4.25,1111122 
DISL,ioos:station:DISL:KATA:1,2016-05-05T08:30:00Z,30.2583,-88.2131,4.302,4.25,1111122 
DISL,ioos:station:DISL:KATA:1,2016-05-05T09:00:00Z,30.2583,-88.2131,4.306,4.25,1111122 
DISL,ioos:station:DISL:KATA:1,2016-05-05T09:30:00Z,30.2583,-88.2131,4.293,4.25,1111122 
DISL,ioos:station:DISL:KATA:1,2016-05-05T10:00:00Z,30.2583,-88.2131,4.288,4.25,1111122 
DISL,ioos:station:DISL:KATA:1,2016-05-05T10:30:00Z,30.2583,-88.2131,4.282,4.25,1111122 
DISL,ioos:station:DISL:KATA:1,2016-05-05T11:00:00Z,30.2583,-88.2131,4.296,4.25,1111122 
DISL,ioos:station:DISL:KATA:1,2016-05-05T11:30:00Z,30.2583,-88.2131,4.296,4.25,1111122 
DISL,ioos:station:DISL:KATA:1,2016-05-05T12:00:00Z,30.2583,-88.2131,4.306,4.25,1111122 
DISL,ioos:station:DISL:KATA:1,2016-05-05T12:30:00Z,30.2583,-88.2131,4.306,4.25,1111122 
DISL,ioos:station:DISL:KATA:1,2016-05-05T13:00:00Z,30.2583,-88.2131,4.294,4.25,1111122 
DISL,ioos:station:DISL:KATA:1,2016-05-05T13:30:00Z,30.2583,-88.2131,4.27,4.25,1111122 
DISL,ioos:station:DISL:KATA:1,2016-05-05T14:00:00Z,30.2583,-88.2131,4.249,4.25,1111122 
DISL,ioos:station:DISL:KATA:1,2016-05-05T14:30:00Z,30.2583,-88.2131,4.25,4.25,1111122 
DISL,ioos:station:DISL:KATA:1,2016-05-05T15:00:00Z,30.2583,-88.2131,4.272,4.25,1111122 
DISL,ioos:station:DISL:KATA:1,2016-05-05T15:30:00Z,30.2583,-88.2131,4.285,4.25,1111122 
DISL,ioos:station:DISL:KATA:1,2016-05-05T16:00:00Z,30.2583,-88.2131,4.301,4.25,1111122 
DISL,ioos:station:DISL:KATA:1,2016-05-05T16:30:00Z,30.2583,-88.2131,4.306,4.25,1111122 
DISL,ioos:station:DISL:KATA:1,2016-05-05T17:00:00Z,30.2583,-88.2131,4.294,4.25,1111122 
DISL,ioos:station:DISL:KATA:1,2016-05-05T17:30:00Z,30.2583,-88.2131,4.28,4.25,1111122 
DISL,ioos:station:DISL:KATA:1,2016-05-05T18:00:00Z,30.2583,-88.2131,4.243,4.25,1111122 
DISL,ioos:station:DISL:KATA:1,2016-05-05T18:30:00Z,30.2583,-88.2131,4.209,4.25,1111122 
DISL,ioos:station:DISL:KATA:1,2016-05-05T19:00:00Z,30.2583,-88.2131,4.158,4.25,1111122 
DISL,ioos:station:DISL:KATA:1,2016-05-05T19:30:00Z,30.2583,-88.2131,4.12,4.25,1111122 
DISL,ioos:station:DISL:KATA:1,2016-05-05T20:00:00Z,30.2583,-88.2131,4.089,4.25,1111122 
DISL,ioos:station:DISL:KATA:1,2016-05-05T20:30:00Z,30.2583,-88.2131,4.08,4.25,1111122 
DISL,ioos:station:DISL:KATA:1,2016-05-05T21:00:00Z,30.2583,-88.2131,4.039,4.25,1111122 
DISL,ioos:station:DISL:KATA:1,2016-05-05T21:30:00Z,30.2583,-88.2131,4.022,4.25,1111122 
DISL,ioos:station:DISL:KATA:1,2016-05-05T22:00:00Z,30.2583,-88.2131,3.998,4.25,1111122 
DISL,ioos:station:DISL:KATA:1,2016-05-05T22:30:00Z,30.2583,-88.2131,3.985,4.25,1111122 
DISL,ioos:station:DISL:KATA:1,2016-05-05T23:00:00Z,30.2583,-88.2131,3.954,4.25,1111122 
DISL,ioos:station:DISL:KATA:1,2016-05-05T23:30:00Z,30.2583,-88.2131,3.954,4.25,1111122 
DISL,ioos:station:DISL:KATA:1,2016-05-06T00:00:00Z,30.2583,-88.2131,3.942,4.25,1111122 
DISL,ioos:station:DISL:KATA:1,2016-05-06T00:30:00Z,30.2583,-88.2131,3.957,4.25,1111122 
DISL,ioos:station:DISL:KATA:1,2016-05-06T01:00:00Z,30.2583,-88.2131,3.965,4.25,1111122 
DISL,ioos:station:DISL:KATA:1,2016-05-06T01:30:00Z,30.2583,-88.2131,3.972,4.25,1111122 
DISL,ioos:station:DISL:KATA:1,2016-05-06T02:00:00Z,30.2583,-88.2131,3.972,4.25,1111122 
DISL,ioos:station:DISL:KATA:1,2016-05-06T02:30:00Z,30.2583,-88.2131,3.969,4.25,1111122 
DISL,ioos:station:DISL:KATA:1,2016-05-06T03:00:00Z,30.2583,-88.2131,3.965,4.25,1111122 
DISL,ioos:station:DISL:KATA:1,2016-05-06T03:30:00Z,30.2583,-88.2131,3.973,4.25,1111122 
DISL,ioos:station:DISL:KATA:1,2016-05-06T04:00:00Z,30.2583,-88.2131,3.985,4.25,1111122 
DISL,ioos:station:DISL:KATA:1,2016-05-06T04:30:00Z,30.2583,-88.2131,4.006,4.25,1111122 
DISL,ioos:station:DISL:KATA:1,2016-05-06T05:00:00Z,30.2583,-88.2131,4.047,4.25,1111122 
DISL,ioos:station:DISL:KATA:1,2016-05-06T05:30:00Z,30.2583,-88.2131,4.096,4.25,1111122 
DISL,ioos:station:DISL:KATA:1,2016-05-06T06:00:00Z,30.2583,-88.2131,4.126,4.25,1111122 
DISL,ioos:station:DISL:KATA:1,2016-05-06T06:30:00Z,30.2583,-88.2131,4.139,4.25,1111122 
DISL,ioos:station:DISL:KATA:1,2016-05-06T07:00:00Z,30.2583,-88.2131,4.139,4.25,1111122 
DISL,ioos:station:DISL:KATA:1,2016-05-06T07:30:00Z,30.2583,-88.2131,4.131,4.25,1111122 
DISL,ioos:station:DISL:KATA:1,2016-05-06T08:00:00Z,30.2583,-88.2131,4.15,4.25,1111122 
DISL,ioos:station:DISL:KATA:1,2016-05-06T08:30:00Z,30.2583,-88.2131,4.15,4.25,1111122 
DISL,ioos:station:DISL:KATA:1,2016-05-06T09:00:00Z,30.2583,-88.2131,4.146,4.25,1111122 
DISL,ioos:station:DISL:KATA:1,2016-05-06T09:30:00Z,30.2583,-88.2131,4.156,4.25,1111122 
DISL,ioos:station:DISL:KATA:1,2016-05-06T10:00:00Z,30.2583,-88.2131,4.173,4.25,1111122 
DISL,ioos:station:DISL:KATA:1,2016-05-06T10:30:00Z,30.2583,-88.2131,4.195,4.25,1111122 
DISL,ioos:station:DISL:KATA:1,2016-05-06T11:00:00Z,30.2583,-88.2131,4.228,4.25,1111122 
DISL,ioos:station:DISL:KATA:1,2016-05-06T11:30:00Z,30.2583,-88.2131,4.265,4.25,1111122 
DISL,ioos:station:DISL:KATA:1,2016-05-06T12:00:00Z,30.2583,-88.2131,4.307,4.25,1111122 
DISL,ioos:station:DISL:KATA:1,2016-05-06T12:30:00Z,30.2583,-88.2131,4.346,4.25,1111122 
DISL,ioos:station:DISL:KATA:1,2016-05-06T13:00:00Z,30.2583,-88.2131,4.369,4.25,1111122 
DISL,ioos:station:DISL:KATA:1,2016-05-06T13:30:00Z,30.2583,-88.2131,4.383,4.25,1111122 
DISL,ioos:station:DISL:KATA:1,2016-05-06T14:00:00Z,30.2583,-88.2131,4.39,4.25,1111122 
DISL,ioos:station:DISL:KATA:1,2016-05-06T14:30:00Z,30.2583,-88.2131,4.402,4.25,1111122 
DISL,ioos:station:DISL:KATA:1,2016-05-06T15:00:00Z,30.2583,-88.2131,4.4,4.25,1111122 